FW6635 Weather Reports


time (UTC)temp
C
wind
direction
speed
KPH
gust
KPH
rain 1hr
cm
rain 24hr
cm
rain mn
cm
humidity
%
barometer
mb
20260509043056 16 0 0.0 4.8 0.00 0.00 0.00 87 1016.7
20260509041551 16 0 0.0 0.0 0.00 0.00 0.00 87 1016.7
20260509040112 16 0 0.0 0.0 0.00 0.00 0.00 86 1016.8
20260509034604 16 0 0.0 3.2 0.00 0.00 0.00 85 1016.8
20260509033051 17 0 0.0 4.8 0.00 0.00 0.00 83 1016.8
20260509031553 17 0 0.0 9.7 0.00 0.00 0.00 83 1016.6
20260509024554 17 0 3.2 6.4 0.00 0.00 0.00 82 1017.1
20260509023051 17 151 1.6 12.9 0.00 0.00 0.00 82 1017.0
20260509021550 17 166 4.8 11.3 0.00 0.00 0.00 81 1016.9
20260509020052 17 115 4.8 11.3 0.00 0.00 0.00 84 1016.8
20260509014553 16 0 0.0 0.0 0.00 0.00 0.00 89 1017.1
20260509013108 16 0 0.0 0.0 0.00 0.00 0.00 88 1016.8
20260509011600 16 0 0.0 0.0 0.00 0.00 0.00 89 1016.7
20260509010050 17 0 0.0 0.0 0.00 0.00 0.00 88 1016.3
20260509004553 17 0 0.0 0.0 0.00 0.00 0.00 87 1016.3
20260509003111 17 0 0.0 0.0 0.00 0.00 0.00 87 1016.3
20260509001552 17 0 0.0 1.6 0.00 0.00 0.00 84 1016.0
20260509000107 18 0 0.0 0.0 0.00 0.00 0.00 83 1015.9
20260508234546 18 0 0.0 0.0 0.00 0.00 0.00 83 1015.9
20260508233054 18 0 0.0 1.6 0.00 0.00 0.00 81 1015.7
20260508231554 19 0 0.0 1.6 0.00 0.00 0.00 80 1015.5
20260508230053 20 0 0.0 0.0 0.00 0.00 0.00 74 1015.6
20260508224557 20 0 0.0 0.0 0.00 0.03 0.00 73 1015.9
20260508223045 21 111 1.6 6.4 0.00 0.03 0.00 63 1015.9
20260508221552 21 167 3.2 8.0 0.00 0.03 0.00 61 1016.1
20260508220048 21 166 3.2 8.0 0.00 0.03 0.00 60 1016.2
20260508214554 21 59 1.6 9.7 0.00 0.05 0.00 61 1016.0
20260508213045 21 200 0.0 6.4 0.00 0.05 0.00 57 1016.0
20260508211549 21 219 1.6 11.3 0.00 0.05 0.00 58 1015.9
20260508210052 22 194 4.8 9.7 0.00 0.05 0.00 58 1015.9
20260508204550 22 138 3.2 9.7 0.00 0.10 0.00 54 1016.3
20260508203052 23 235 3.2 11.3 0.00 0.10 0.00 58 1016.5
20260508201550 23 188 3.2 9.7 0.00 0.10 0.00 56 1016.3
20260508200059 22 194 4.8 14.5 0.00 0.10 0.00 52 1016.4
20260508194550 22 163 4.8 11.3 0.00 0.18 0.00 53 1016.3
20260508193100 22 140 4.8 9.7 0.00 0.18 0.00 56 1016.7
20260508191549 22 74 6.4 14.5 0.00 0.18 0.00 55 1016.7
20260508190049 23 32 1.6 6.4 0.00 0.18 0.00 54 1017.3
20260508184602 22 98 4.8 12.9 0.00 0.33 0.00 54 1017.3
20260508183101 22 204 4.8 8.0 0.00 0.33 0.00 57 1017.7
20260508181551 22 0 0.0 12.9 0.00 0.33 0.00 57 1017.8
20260508180051 21 155 4.8 12.9 0.00 0.33 0.00 56 1017.8
20260508174602 21 160 3.2 9.7 0.00 0.51 0.00 56 1017.8
20260508173050 21 305 1.6 16.1 0.00 0.51 0.00 57 1018.4
20260508171546 21 167 3.2 14.5 0.00 0.51 0.00 57 1018.3
20260508170053 21 31 1.6 17.7 0.00 0.51 0.00 54 1018.4
20260508164550 21 135 3.2 14.5 0.00 0.76 0.00 55 1018.7
20260508163113 21 80 9.7 14.5 0.00 0.76 0.00 56 1018.8
20260508161550 21 73 6.4 16.1 0.00 0.76 0.00 56 1018.8
20260508160047 21 170 6.4 19.3 0.00 0.76 0.00 55 1018.8
20260508154554 21 147 8.0 16.1 0.00 0.84 0.00 56 1019.1
20260508153054 21 150 8.0 16.1 0.00 0.84 0.00 58 1019.5
20260508151546 21 96 11.3 20.9 0.00 0.84 0.00 55 1019.6
20260508150052 20 124 11.3 19.3 0.00 0.84 0.00 57 1019.8
20260508144549 19 90 12.9 20.9 0.00 1.32 0.00 61 1019.7
20260508143051 19 64 9.7 20.9 0.00 1.32 0.00 63 1019.7
20260508141547 20 90 8.0 14.5 0.00 1.32 0.00 63 1019.9
20260508140048 19 81 12.9 20.9 0.00 1.32 0.00 67 1019.8
20260508134546 18 42 12.9 17.7 0.00 1.40 0.00 68 1019.8
20260508133050 17 84 8.0 22.5 0.00 1.40 0.00 74 1019.4
20260508131555 17 90 4.8 17.7 0.00 1.40 0.00 76 1019.4
20260508130058 16 107 6.4 20.9 0.00 1.40 0.00 82 1018.8
20260508124549 16 55 4.8 16.1 0.00 1.40 0.00 86 1018.8
20260508123052 15 90 4.8 14.5 0.00 1.40 0.00 89 1018.7
20260508121550 15 55 4.8 14.5 0.00 1.40 0.00 89 1018.5
20260508120057 14 74 4.8 11.3 0.00 1.40 0.00 90 1018.3
20260508114549 14 0 1.6 4.8 0.00 1.47 0.00 91 1018.0
20260508113054 13 0 3.2 6.4 0.00 1.47 0.00 92 1017.6
20260508111555 13 0 1.6 6.4 0.00 1.47 0.00 93 1017.5
20260508110106 13 5 0.0 4.8 0.00 1.47 0.00 92 1017.1
20260508104550 13 0 0.0 4.8 0.00 1.47 0.00 92 1017.1
20260508103057 13 32 0.0 4.8 0.00 1.47 0.00 92 1016.9
20260508101555 13 42 0.0 6.4 0.00 1.47 0.00 92 1016.6
20260508100054 13 0 0.0 0.0 0.00 1.47 0.00 91 1016.4
20260508094555 13 0 0.0 4.8 0.00 1.80 0.00 91 1016.2
20260508093058 13 0 1.6 4.8 0.00 1.80 0.00 90 1016.1
20260508091551 13 47 1.6 4.8 0.00 1.80 0.00 89 1015.9
20260508090104 13 0 0.0 0.0 0.00 1.80 0.00 89 1015.9
20260508084548 13 0 0.0 8.0 0.00 2.18 0.00 88 1015.8
20260508083045 13 49 0.0 6.4 0.00 2.18 0.00 89 1016.0
20260508081548 13 0 0.0 0.0 0.00 2.18 0.00 89 1015.9
20260508080056 13 0 0.0 0.0 0.00 2.18 0.00 90 1015.8
20260508074545 14 0 0.0 0.0 0.00 2.24 0.00 88 1015.7
20260508073049 15 0 0.0 3.2 0.00 2.24 0.00 87 1015.7
20260508071549 15 51 3.2 6.4 0.00 2.24 0.00 87 1015.6
20260508070054 15 55 1.6 6.4 0.00 2.24 0.00 86 1015.5
20260508064553 15 0 0.0 6.4 0.00 2.24 0.00 85 1015.3
20260508063053 15 24 0.0 6.4 0.00 2.24 0.00 85 1015.5
20260508061605 15 0 0.0 3.2 0.00 2.24 0.00 87 1015.5
20260508060052 15 0 0.0 0.0 0.00 2.24 0.00 88 1015.5
20260508054623 15 0 0.0 0.0 0.00 2.24 0.00 89 1015.5
20260508053049 15 0 0.0 0.0 0.00 2.24 0.00 93 1015.3
20260508051550 15 0 0.0 0.0 0.00 2.24 0.00 93 1015.2
20260508050055 15 0 0.0 0.0 0.00 2.24 0.00 92 1015.2
20260508044557 16 0 0.0 0.0 0.00 2.24 0.00 90 1015.4